Tracking 25707 objects as of 29-Jun-2022
HD Live streaming from Space Station
objects crossing your sky now

STARLINK-3868

Track STARLINK-3868 now!
10-day predictions
STARLINK-3868 is classified as:


NORAD ID: 52649
Int'l Code: 2022-052BD
Perigee: 354.5 km
Apogee: 359.2 km
Inclination: 53.2 °
Period: 91.5 minutes
Semi major axis: 6727 km
RCS: Unknown
Launch date: May 14, 2022
Source: United States (US)
Launch site: AIR FORCE EASTERN TEST RANGE (AFETR)
aabbcc
Your satellite tracking list
Your tracking list is empty




NASA's NSSDC Master Catalog

Two Line Element Set (TLE):
1 52649U 22052BD  22180.58334491  .00061445  00000-0  43855-3 0  9995
2 52649  53.2124 213.1775 0003507  14.8663 212.4098 15.73219564  1307
Source of the keplerian elements: AFSPC